Location: Melbourne
(37.8170°S, 144.9670°E)
Time: 04:28:49
(UTC+10:00)

ISS - All Passes

Search period start: 25 July 2016 00:00
Search period end: 04 August 2016 00:00
Orbit: 401 x 404 km, 51.6° (Epoch: 24 July)

Date Brightness Start Highest point End Pass type
(mag) Time Alt. Az. Time Alt. Az. Time Alt. Az.
25 Jul - 09:21:08 10° NNW 09:24:15 39° NE 09:27:24 10° ESE daylight
25 Jul - 10:58:02 10° W 11:00:47 23° SSW 11:03:34 10° SSE daylight
25 Jul - 15:50:24 10° SSW 15:53:21 28° SSE 15:56:17 10° E daylight
25 Jul - 17:26:48 10° WSW 17:29:46 30° NW 17:32:42 10° NNE daylight
26 Jul - 08:29:03 10° N 08:31:29 19° NE 08:33:57 10° E daylight
26 Jul - 10:04:35 10° WNW 10:07:43 39° SW 10:10:54 10° SE daylight
26 Jul - 11:44:00 10° SSW 11:44:54 11° SSW 11:45:48 10° S daylight
26 Jul - 14:57:49 10° SSW 15:00:14 18° SSE 15:02:38 10° ESE daylight
26 Jul - 16:33:38 10° SW 16:36:57 65° NW 16:40:13 10° NE daylight
27 Jul - 09:11:27 10° NW 09:14:45 78° SW 09:18:06 10° SE daylight
27 Jul - 10:49:43 10° WSW 10:51:39 14° SSW 10:53:36 10° SSE daylight
27 Jul - 14:05:23 10° S 14:07:01 13° SSE 14:08:40 10° SE daylight
27 Jul - 15:40:43 10° SW 15:44:02 60° SE 15:47:19 10° ENE daylight
27 Jul - 17:18:39 10° WNW 17:20:05 12° NW 17:21:30 10° NNW daylight
28 Jul - 08:18:39 10° NNW 08:21:52 49° NE 08:25:06 10° ESE daylight
28 Jul - 09:55:51 10° W 09:58:28 21° SSW 10:01:06 10° SSE daylight
28 Jul - 14:47:58 10° SSW 14:51:01 32° SSE 14:54:03 10° E daylight
28 Jul - 16:24:35 10° WSW 16:27:21 25° NW 16:30:07 10° N daylight
29 Jul - 07:26:22 10° N 07:29:03 23° NE 07:31:47 10° ESE daylight
29 Jul - 09:02:19 10° W 09:05:22 33° SSW 09:08:27 10° SE daylight
29 Jul - 10:42:21 10° SSW 10:42:38 10° SSW 10:42:55 10° S daylight
29 Jul - 13:55:20 10° SSW 13:57:55 20° SSE 14:00:28 10° ESE daylight
29 Jul - 15:31:18 10° WSW 15:34:33 52° NW 15:37:46 10° NNE daylight
30 Jul - 06:35:09 10° NNE 06:36:20 12° NE 06:37:32 10° ENE visible
30 Jul - 08:09:05 10° WNW 08:12:22 64° SW 08:15:41 10° SE daylight
30 Jul - 09:47:38 10° SW 09:49:21 13° SSW 09:51:03 10° S daylight
30 Jul - 13:02:51 10° SSW 13:04:43 14° SSE 13:06:36 10° SE daylight
30 Jul - 14:38:18 10° SW 14:41:39 73° SE 14:44:57 10° NE daylight
31 Jul - 07:16:10 10° NW 07:19:26 61° NE 07:22:44 10° ESE daylight
31 Jul - 08:53:41 10° WSW 08:56:08 19° SSW 08:58:36 10° SSE daylight
31 Jul - 12:10:41 10° S 12:11:27 11° SSE 12:12:13 10° SSE daylight
31 Jul - 13:45:30 10° SW 13:48:40 37° SE 13:51:46 10° ENE daylight
31 Jul - 15:22:22 10° W 15:24:55 20° NW 15:27:26 10° N daylight
01 Aug - 06:23:43 10° NNW 06:26:36 28° NE 06:29:32 10° ESE visible
01 Aug - 08:00:03 10° W 08:03:00 29° SSW 08:05:59 10° SSE daylight
01 Aug - 12:52:50 10° SSW 12:55:33 23° SSE 12:58:17 10° E daylight
01 Aug - 14:28:57 10° WSW 14:32:07 42° NW 14:35:15 10° NNE daylight
02 Aug - 05:32:01 10° NNE 05:33:51 14° NE 05:35:42 10° E visible
02 Aug - 07:06:43 10° WNW 07:09:57 52° SW 07:13:14 10° SE daylight
02 Aug - 08:45:35 10° SW 08:47:01 12° SSW 08:48:28 10° S daylight
02 Aug - 12:00:17 10° SSW 12:02:23 15° SSE 12:04:29 10° ESE daylight
02 Aug - 13:35:53 10° SW 13:39:14 89° SE 13:42:32 10° NE daylight
03 Aug - 06:13:42 10° NW 06:17:00 76° NE 06:20:20 10° SE visible
03 Aug - 07:51:31 10° WSW 07:53:46 17° SSW 07:56:03 10° SSE daylight
03 Aug - 11:07:57 10° S 11:09:07 11° SSE 11:10:17 10° SE daylight
03 Aug - 12:43:01 10° SW 12:46:15 44° SE 12:49:27 10° ENE daylight
03 Aug - 14:20:12 10° W 14:22:25 17° NW 14:24:38 10° N daylight
